Location: Betpouey
(42.8833°N, 0.0333°E)
Time: 21:23:55
(UTC+00:00)

Cosmos 1603 - Pass Details

Date: 01 December 2020
Orbit: 831 x 859 km, 71.0° (Epoch: 18 January)

Event Time Altitude Azimuth Distance (km) Brightness Sun altitude
Rises 17:44:27 0° 191° (SSW) 3,375 7.2 -13.9°
Reaches altitude 10° 17:46:54 10° 188° (S) 2,441 6.4 -14.3°
Maximum altitude 17:52:24 60° 110° (ESE) 953 3.7 -15.3°
Enters shadow 17:56:49 16° 34° (NE) 2,049 5.3 -16.1°
